Location: Newark
(45.4422°N, 16.2769°E)
Time: 07:44:21
(UTC+00:00)

Courier 1B Rocket - Pass Details

Date: 09 December 2019
Orbit: 920 x 1202 km, 28.2° (Epoch: 27 January)

Event Time Altitude Azimuth Distance (km) Brightness Sun altitude
Rises 07:23:51 0° 235° (SW) 3,685 7.9 7.6°
Reaches altitude 10° 07:27:38 10° 215° (SW) 2,688 7.5 8.1°
Maximum altitude 07:31:23 16° 179° (S) 2,235 7.7 8.6°
Drops below altitude 10° 07:35:03 10° 143° (SE) 2,621 10.1 9.0°
Sets 07:38:41 0° 123° (ESE) 3,548 9.8 9.5°
